User: anonymous   Login
Location: Camp Creek
(33.9000°N, 111.8167°W)
Time: 08:00:14
(UTC-07:00)
Language:

Cosmos 1656 - Orbit

View from above orbital plane
View from above orbital plane
View from above satellite
View from above satellite

Ground track
Ground track

The orbit data is extracted from the following two-line orbital elements,

1 15755U 85042A   16238.13206513 -.00000070  00000-0 -10578-4 0  9997
2 15755  71.1091 266.9820 0034401 154.5509 205.7321 14.20397715618653
Epoch (UTC): 25 August 2016 03:10:10
Eccentricity: 0.0034401
inclination: 71.1091°
perigee height: 799 km
apogee height: 849 km
right ascension of ascending node: 266.9820°
argument of perigee: 154.5509°
revolutions per day: 14.20397715
mean anomaly at epoch: 205.7321°
orbit number at epoch: 61865

The dashed part of the orbit path shows where the satellite is in the earth's shadow,  

DLR